Location: Drocourt
(49.0571°N, 1.7669°E)
Time: 16:36:50
(UTC+00:00)

Vanguard 3 - Pass Details

Date: 21 April 2024
Orbit: 509 x 3233 km, 33.3° (Epoch: 23 May)

Event Time Altitude Azimuth Distance (km) Brightness Sun altitude
Rises 01:50:13 0° 205° (SSW) 6,960 - -23.6°
Reaches altitude 10° 01:57:18 10° 191° (S) 5,581 - -23.0°
Exits shadow 02:01:53 16° 176° (S) 4,792 10.6 -22.5°
Maximum altitude 02:06:34 18° 155° (SSE) 4,212 10.5 -22.1°
Drops below altitude 10° 02:13:43 10° 118° (ESE) 4,174 10.9 -21.4°
Sets 02:17:49 0° 100° (E) 4,703 11.4 -21.0°
